Time,TemperatureF,DewpointF,PressureIn,WindDirection,WindDirectionDegrees,WindSpeedMPH,WindSpeedGustMPH,Humidity,HourlyPrecipIn,Conditions,Clouds,dailyrainin,SoftwareType,DateUTC
2013-03-30 00:02:00,41.0,29.0,30.01,WNW,290,7.0,12.0,63,0.00,,,0.00,,2013-03-30 04:02:00,
2013-03-30 00:12:00,41.0,29.0,30.01,WNW,290,7.0,12.0,63,0.00,,,0.00,,2013-03-30 04:12:00,
2013-03-30 00:23:00,41.0,30.0,30.01,NW,306,5.0,9.0,64,0.00,,,0.00,,2013-03-30 04:23:00,
2013-03-30 00:33:00,41.0,30.0,30.01,WNW,302,6.0,10.0,64,0.00,,,0.00,,2013-03-30 04:33:00,
2013-03-30 00:43:00,41.0,30.0,30.01,WNW,302,6.0,10.0,64,0.00,,,0.00,,2013-03-30 04:43:00,
2013-03-30 00:52:00,41.0,30.0,30.01,WNW,286,6.0,12.0,65,0.00,,,0.00,,2013-03-30 04:52:00,
2013-03-30 01:02:00,40.0,30.0,30.02,West,269,5.0,10.0,66,0.00,,,0.00,,2013-03-30 05:02:00,
2013-03-30 01:12:00,40.0,30.0,30.02,West,269,5.0,10.0,66,0.00,,,0.00,,2013-03-30 05:12:00,
2013-03-30 01:22:00,39.0,29.0,30.02,West,269,5.0,8.0,68,0.00,,,0.00,,2013-03-30 05:22:00,
2013-03-30 01:32:00,38.0,30.0,30.01,WNW,285,3.0,7.0,72,0.00,,,0.00,,2013-03-30 05:32:00,
2013-03-30 01:42:00,38.0,30.0,30.01,WNW,285,3.0,7.0,72,0.00,,,0.00,,2013-03-30 05:42:00,
2013-03-30 01:52:00,38.0,30.0,30.02,WNW,299,5.0,7.0,72,0.00,,,0.00,,2013-03-30 05:52:00,
2013-03-30 02:02:00,38.0,29.0,30.02,West,270,4.0,7.0,71,0.00,,,0.00,,2013-03-30 06:02:00,
2013-03-30 02:12:00,38.0,29.0,30.02,West,270,4.0,7.0,71,0.00,,,0.00,,2013-03-30 06:12:00,
2013-03-30 02:23:00,38.0,29.0,30.02,WNW,284,4.0,6.0,71,0.00,,,0.00,,2013-03-30 06:23:00,
2013-03-30 02:32:00,38.0,30.0,30.01,WNW,288,6.0,9.0,73,0.00,,,0.00,,2013-03-30 06:32:00,
2013-03-30 02:42:00,38.0,30.0,30.01,WNW,288,6.0,9.0,73,0.00,,,0.00,,2013-03-30 06:42:00,
2013-03-30 02:52:00,38.0,29.0,30.01,WNW,283,6.0,10.0,71,0.00,,,0.00,,2013-03-30 06:52:00,
2013-03-30 03:02:00,39.0,30.0,30.01,NW,317,6.0,10.0,70,0.00,,,0.00,,2013-03-30 07:02:00,
2013-03-30 03:12:00,39.0,30.0,30.01,NW,317,6.0,10.0,70,0.00,,,0.00,,2013-03-30 07:12:00,
2013-03-30 03:22:00,39.0,30.0,30.01,NW,318,5.0,10.0,70,0.00,,,0.00,,2013-03-30 07:22:00,
2013-03-30 03:32:00,38.0,29.0,30.01,NNW,331,7.0,11.0,71,0.00,,,0.00,,2013-03-30 07:32:00,
2013-03-30 03:42:00,38.0,29.0,30.01,NNW,331,7.0,11.0,71,0.00,,,0.00,,2013-03-30 07:42:00,
2013-03-30 03:52:00,38.0,30.0,30.01,NW,326,5.0,11.0,72,0.00,,,0.00,,2013-03-30 07:52:00,
2013-03-30 04:02:00,37.0,29.0,30.01,NW,317,6.0,9.0,73,0.00,,,0.00,,2013-03-30 08:02:00,
2013-03-30 04:12:00,37.0,29.0,30.01,NW,317,6.0,9.0,73,0.00,,,0.00,,2013-03-30 08:12:00,
2013-03-30 04:22:00,36.0,29.0,30.02,NW,320,4.0,8.0,74,0.00,,,0.00,,2013-03-30 08:22:00,
2013-03-30 04:32:00,36.0,29.0,30.02,WNW,288,5.0,8.0,75,0.00,,,0.00,,2013-03-30 08:32:00,
2013-03-30 04:42:00,36.0,29.0,30.02,WNW,288,5.0,8.0,75,0.00,,,0.00,,2013-03-30 08:42:00,
2013-03-30 04:52:00,36.0,29.0,30.02,WNW,288,5.0,8.0,75,0.00,,,0.00,,2013-03-30 08:52:00,
2013-03-30 05:02:00,35.0,29.0,30.02,NW,319,7.0,10.0,78,0.00,,,0.00,,2013-03-30 09:02:00,
2013-03-30 05:12:00,35.0,29.0,30.02,NW,309,6.0,10.0,77,0.00,,,0.00,,2013-03-30 09:12:00,
2013-03-30 05:23:00,35.0,29.0,30.02,NW,309,6.0,10.0,77,0.00,,,0.00,,2013-03-30 09:23:00,
2013-03-30 05:33:00,35.0,28.0,30.02,NW,322,3.0,6.0,76,0.00,,,0.00,,2013-03-30 09:33:00,
2013-03-30 05:43:00,35.0,28.0,30.02,NW,322,3.0,6.0,76,0.00,,,0.00,,2013-03-30 09:43:00,
2013-03-30 05:53:00,35.0,29.0,30.02,NW,311,2.0,4.0,77,0.00,,,0.00,,2013-03-30 09:53:00,
2013-03-30 06:03:00,34.0,28.0,30.03,NW,323,1.0,3.0,78,0.00,,,0.00,,2013-03-30 10:03:00,
2013-03-30 06:13:00,34.0,28.0,30.03,NW,323,1.0,3.0,78,0.00,,,0.00,,2013-03-30 10:13:00,
2013-03-30 06:23:00,33.0,28.0,30.03,NW,313,2.0,3.0,80,0.00,,,0.00,,2013-03-30 10:23:00,
2013-03-30 06:33:00,32.0,27.0,30.03,West,281,4.0,5.0,82,0.00,,,0.00,,2013-03-30 10:33:00,
2013-03-30 06:42:00,32.0,27.0,30.03,West,281,4.0,5.0,82,0.00,,,0.00,,2013-03-30 10:42:00,
2013-03-30 06:52:00,32.0,28.0,30.03,WNW,284,3.0,5.0,84,0.00,,,0.00,,2013-03-30 10:52:00,
2013-03-30 07:04:00,33.0,28.0,30.04,NW,304,2.0,4.0,81,0.00,,,0.00,,2013-03-30 11:04:00,
2013-03-30 07:12:00,33.0,28.0,30.04,NW,304,2.0,4.0,81,0.00,,,0.00,,2013-03-30 11:12:00,
2013-03-30 07:22:00,33.0,28.0,30.04,NW,306,1.0,4.0,80,0.00,,,0.00,,2013-03-30 11:22:00,
2013-03-30 07:33:00,35.0,29.0,30.05,NW,317,1.0,3.0,77,0.00,,,0.00,,2013-03-30 11:33:00,
2013-03-30 07:42:00,35.0,29.0,30.05,NW,317,1.0,3.0,77,0.00,,,0.00,,2013-03-30 11:42:00,
2013-03-30 07:52:00,36.0,29.0,30.05,West,267,3.0,6.0,77,0.00,,,0.00,,2013-03-30 11:52:00,
2013-03-30 08:02:00,37.0,30.0,30.05,WNW,284,3.0,6.0,77,0.00,,,0.00,,2013-03-30 12:02:00,
2013-03-30 08:12:00,37.0,30.0,30.05,WNW,284,3.0,6.0,77,0.00,,,0.00,,2013-03-30 12:12:00,
2013-03-30 08:22:00,39.0,30.0,30.05,West,280,4.0,7.0,71,0.00,,,0.00,,2013-03-30 12:22:00,
2013-03-30 08:33:00,41.0,31.0,30.05,NW,304,5.0,11.0,68,0.00,,,0.00,,2013-03-30 12:33:00,
2013-03-30 08:42:00,41.0,31.0,30.05,NW,304,5.0,11.0,68,0.00,,,0.00,,2013-03-30 12:42:00,
2013-03-30 08:52:00,42.0,31.0,30.05,NW,309,6.0,9.0,64,0.00,,,0.00,,2013-03-30 12:52:00,
2013-03-30 09:02:00,43.0,31.0,30.06,WNW,302,8.0,12.0,62,0.00,,,0.00,,2013-03-30 13:02:00,
2013-03-30 09:12:00,43.0,31.0,30.06,WNW,302,8.0,12.0,62,0.00,,,0.00,,2013-03-30 13:12:00,
2013-03-30 09:22:00,43.0,30.0,30.06,NW,317,10.0,13.0,60,0.00,,,0.00,,2013-03-30 13:22:00,
2013-03-30 09:32:00,44.0,30.0,30.06,NNW,327,6.0,11.0,58,0.00,,,0.00,,2013-03-30 13:32:00,
2013-03-30 09:43:00,44.0,30.0,30.06,NNW,327,6.0,11.0,58,0.00,,,0.00,,2013-03-30 13:43:00,
2013-03-30 09:52:00,45.0,30.0,30.06,NW,325,5.0,10.0,56,0.00,,,0.00,,2013-03-30 13:52:00,
2013-03-30 10:03:00,46.0,30.0,30.05,NNW,342,5.0,10.0,54,0.00,,,0.00,,2013-03-30 14:03:00,
2013-03-30 10:12:00,46.0,30.0,30.05,NNW,342,5.0,10.0,54,0.00,,,0.00,,2013-03-30 14:12:00,
2013-03-30 10:23:00,46.0,30.0,30.05,North,355,4.0,12.0,53,0.00,,,0.00,,2013-03-30 14:23:00,
2013-03-30 10:32:00,47.0,31.0,30.05,WNW,302,3.0,11.0,53,0.00,,,0.00,,2013-03-30 14:32:00,
2013-03-30 10:42:00,47.0,31.0,30.05,WNW,302,3.0,11.0,53,0.00,,,0.00,,2013-03-30 14:42:00,
2013-03-30 10:52:00,47.0,29.0,30.04,NNW,346,6.0,10.0,50,0.00,,,0.00,,2013-03-30 14:52:00,
2013-03-30 11:03:00,48.0,29.0,30.04,WSW,246,4.0,9.0,47,0.00,,,0.00,,2013-03-30 15:03:00,
2013-03-30 11:12:00,48.0,29.0,30.04,WSW,246,4.0,9.0,47,0.00,,,0.00,,2013-03-30 15:12:00,
2013-03-30 11:22:00,47.0,28.0,30.04,NW,309,10.0,13.0,48,0.00,,,0.00,,2013-03-30 15:22:00,
2013-03-30 11:34:00,47.0,29.0,30.04,West,272,8.0,12.0,49,0.00,,,0.00,,2013-03-30 15:34:00,
2013-03-30 11:43:00,47.0,29.0,30.04,West,272,8.0,12.0,49,0.00,,,0.00,,2013-03-30 15:43:00,
2013-03-30 11:52:00,48.0,29.0,30.04,SW,223,9.0,13.0,47,0.00,,,0.00,,2013-03-30 15:52:00,
2013-03-30 12:03:00,52.0,27.0,30.03,NE,35,7.0,13.0,37,0.00,,,0.00,,2013-03-30 16:03:00,
2013-03-30 12:13:00,52.0,22.0,30.03,WNW,294,8.0,14.0,30,0.00,,,0.00,,2013-03-30 16:13:00,
2013-03-30 12:23:00,52.0,22.0,30.03,WNW,294,8.0,14.0,30,0.00,,,0.00,,2013-03-30 16:23:00,
2013-03-30 12:33:00,50.0,19.0,30.03,ENE,71,1.0,9.0,29,0.00,,,0.00,,2013-03-30 16:33:00,
2013-03-30 12:43:00,50.0,19.0,30.03,ENE,71,1.0,9.0,29,0.00,,,0.00,,2013-03-30 16:43:00,
2013-03-30 12:52:00,52.0,24.0,30.03,NNW,336,5.0,15.0,33,0.00,,,0.00,,2013-03-30 16:52:00,
2013-03-30 13:02:00,52.0,19.0,30.02,WSW,257,6.0,18.0,27,0.00,,,0.00,,2013-03-30 17:02:00,
2013-03-30 13:13:00,52.0,19.0,30.02,WSW,257,6.0,18.0,27,0.00,,,0.00,,2013-03-30 17:13:00,
2013-03-30 13:23:00,52.0,21.0,30.02,NW,311,9.0,16.0,29,0.00,,,0.00,,2013-03-30 17:23:00,
2013-03-30 13:33:00,51.0,21.0,30.01,West,259,7.0,14.0,30,0.00,,,0.00,,2013-03-30 17:33:00,
2013-03-30 13:42:00,51.0,21.0,30.01,West,259,7.0,14.0,30,0.00,,,0.00,,2013-03-30 17:42:00,
2013-03-30 13:52:00,51.0,21.0,30.01,NNW,335,6.0,17.0,30,0.00,,,0.00,,2013-03-30 17:52:00,
2013-03-30 14:03:00,51.0,16.0,30.01,West,274,9.0,14.0,25,0.00,,,0.00,,2013-03-30 18:03:00,
2013-03-30 14:12:00,53.0,21.0,30.01,WSW,248,7.0,15.0,28,0.00,,,0.00,,2013-03-30 18:12:00,
2013-03-30 14:22:00,53.0,21.0,30.01,WSW,248,7.0,15.0,28,0.00,,,0.00,,2013-03-30 18:22:00,
2013-03-30 14:33:00,52.0,18.0,30.00,SW,221,2.0,14.0,26,0.00,,,0.00,,2013-03-30 18:33:00,
2013-03-30 14:42:00,52.0,18.0,30.00,SW,221,2.0,14.0,26,0.00,,,0.00,,2013-03-30 18:42:00,
2013-03-30 14:53:00,53.0,15.0,30.01,WNW,294,8.0,17.0,22,0.00,,,0.00,,2013-03-30 18:53:00,
2013-03-30 15:03:00,52.0,17.0,30.00,West,261,11.0,18.0,25,0.00,,,0.00,,2013-03-30 19:03:00,
2013-03-30 15:13:00,52.0,17.0,30.00,West,261,11.0,18.0,25,0.00,,,0.00,,2013-03-30 19:13:00,
2013-03-30 15:22:00,53.0,17.0,30.00,NW,325,5.0,15.0,24,0.00,,,0.00,,2013-03-30 19:22:00,
2013-03-30 15:32:00,52.0,17.0,30.00,West,259,9.0,17.0,25,0.00,,,0.00,,2013-03-30 19:32:00,
2013-03-30 15:42:00,52.0,17.0,30.00,West,259,9.0,17.0,25,0.00,,,0.00,,2013-03-30 19:42:00,
2013-03-30 15:52:00,52.0,18.0,30.00,WSW,243,10.0,18.0,26,0.00,,,0.00,,2013-03-30 19:52:00,
2013-03-30 16:02:00,52.0,17.0,30.00,West,259,10.0,18.0,25,0.00,,,0.00,,2013-03-30 20:02:00,
2013-03-30 16:12:00,52.0,17.0,30.00,West,259,10.0,18.0,25,0.00,,,0.00,,2013-03-30 20:12:00,
2013-03-30 16:22:00,52.0,18.0,30.00,West,276,9.0,13.0,26,0.00,,,0.00,,2013-03-30 20:22:00,
2013-03-30 16:33:00,51.0,28.0,30.01,SW,229,6.0,14.0,41,0.00,,,0.00,,2013-03-30 20:33:00,
2013-03-30 16:42:00,51.0,28.0,30.01,SW,229,6.0,14.0,41,0.00,,,0.00,,2013-03-30 20:42:00,
2013-03-30 16:52:00,51.0,28.0,30.01,SW,229,6.0,14.0,41,0.00,,,0.00,,2013-03-30 20:52:00,
2013-03-30 17:03:00,51.0,28.0,30.01,SW,229,6.0,14.0,41,0.00,,,0.00,,2013-03-30 21:03:00,
2013-03-30 17:34:00,48.0,29.0,29.92,SSW,199,6.0,10.0,47,0.00,,,0.00,,2013-03-30 21:34:00,
2013-03-30 17:43:00,48.0,29.0,29.92,SSW,199,6.0,10.0,47,0.00,,,0.00,,2013-03-30 21:43:00,
2013-03-30 17:53:00,48.0,28.0,29.96,South,187,4.0,10.0,45,0.00,,,0.00,,2013-03-30 21:53:00,
2013-03-30 18:03:00,47.0,26.0,29.96,WSW,243,5.0,10.0,43,0.00,,,0.00,,2013-03-30 22:03:00,
2013-03-30 18:13:00,47.0,26.0,29.96,WSW,243,5.0,10.0,43,0.00,,,0.00,,2013-03-30 22:13:00,
2013-03-30 18:23:00,47.0,25.0,29.96,SSW,205,5.0,12.0,42,0.00,,,0.00,,2013-03-30 22:23:00,
2013-03-30 18:33:00,46.0,26.0,29.97,SSW,205,3.0,8.0,45,0.00,,,0.00,,2013-03-30 22:33:00,
2013-03-30 18:43:00,46.0,26.0,29.97,SSW,205,3.0,8.0,45,0.00,,,0.00,,2013-03-30 22:43:00,
2013-03-30 18:53:00,45.0,27.0,29.97,SSW,209,4.0,8.0,48,0.00,,,0.00,,2013-03-30 22:53:00,
2013-03-30 19:03:00,44.0,28.0,29.98,SSW,211,2.0,5.0,53,0.00,,,0.00,,2013-03-30 23:03:00,
2013-03-30 19:12:00,44.0,28.0,29.98,SSW,211,2.0,5.0,53,0.00,,,0.00,,2013-03-30 23:12:00,
2013-03-30 19:22:00,43.0,28.0,29.98,SW,228,3.0,7.0,56,0.00,,,0.00,,2013-03-30 23:22:00,
2013-03-30 19:33:00,41.0,28.0,29.98,SW,229,4.0,6.0,60,0.00,,,0.00,,2013-03-30 23:33:00,
2013-03-30 19:42:00,41.0,28.0,29.98,SW,229,4.0,6.0,60,0.00,,,0.00,,2013-03-30 23:42:00,
2013-03-30 19:52:00,40.0,28.0,29.99,SW,217,4.0,7.0,62,0.00,,,0.00,,2013-03-30 23:52:00,
2013-03-30 20:03:00,39.0,28.0,29.99,SW,227,4.0,6.0,64,0.00,,,0.00,,2013-03-31 00:03:00,
2013-03-30 20:12:00,39.0,28.0,29.99,SW,227,4.0,6.0,64,0.00,,,0.00,,2013-03-31 00:12:00,
2013-03-30 20:22:00,39.0,28.0,30.00,SW,233,3.0,7.0,64,0.00,,,0.00,,2013-03-31 00:22:00,
2013-03-30 20:32:00,38.0,28.0,30.00,SSW,213,5.0,7.0,66,0.00,,,0.00,,2013-03-31 00:32:00,
2013-03-30 20:42:00,38.0,28.0,30.00,SSW,213,5.0,7.0,66,0.00,,,0.00,,2013-03-31 00:42:00,
2013-03-30 20:52:00,39.0,29.0,30.01,SW,221,3.0,7.0,67,0.00,,,0.00,,2013-03-31 00:52:00,
2013-03-30 21:02:00,37.0,28.0,30.01,SW,227,4.0,6.0,71,0.00,,,0.00,,2013-03-31 01:02:00,
2013-03-30 21:12:00,37.0,28.0,30.01,SW,227,4.0,6.0,71,0.00,,,0.00,,2013-03-31 01:12:00,
2013-03-30 21:22:00,35.0,27.0,30.02,WSW,247,3.0,6.0,73,0.00,,,0.00,,2013-03-31 01:22:00,
2013-03-30 21:32:00,37.0,29.0,30.02,SW,234,3.0,7.0,73,0.00,,,0.00,,2013-03-31 01:32:00,
2013-03-30 21:42:00,37.0,29.0,30.02,SW,234,3.0,7.0,73,0.00,,,0.00,,2013-03-31 01:42:00,
2013-03-30 21:52:00,34.0,27.0,30.02,WSW,253,3.0,5.0,76,0.00,,,0.00,,2013-03-31 01:52:00,
2013-03-30 22:02:00,33.0,28.0,30.03,West,262,3.0,5.0,80,0.00,,,0.00,,2013-03-31 02:02:00,
2013-03-30 22:13:00,33.0,28.0,30.03,West,262,3.0,5.0,80,0.00,,,0.00,,2013-03-31 02:13:00,
2013-03-30 22:22:00,33.0,28.0,30.03,West,262,3.0,5.0,80,0.00,,,0.00,,2013-03-31 02:22:00,
2013-03-30 22:32:00,33.0,28.0,30.03,West,262,3.0,5.0,80,0.00,,,0.00,,2013-03-31 02:32:00,